Regional Weather Roundup
Issued by NWS

Home | Current Version | Previous Version | Graphics & Text | Print | Product List | Glossary Off
Versions: 1 2 3 4 5 6 7 8 9 10 11 12 13 14 15 16 17 18 19 20 21 22 23 24 25 26 27 28 29 30 31 32 33 34 35 36 37 38 39 40 41 42 43 44 45 46 47 48 49 50

000
ASUS43 KTOP 050108
RWRKS

WEATHER ROUNDUP FOR KANSAS
NATIONAL WEATHER SERVICE GOODLAND KS
800 PM CDT TUE AUG 04 2015

NOTE:  "FAIR" INDICATES FEW OR NO CLOUDS BELOW 12,000 FEET WITH NO
SIGNIFICANT WEATHER AND/OR OBSTRUCTIONS TO VISIBILITY.

KSZ001>006-013>018-027>032-041>047-050200-
NORTHWEST KANSAS

CITY           SKY/WX    TMP DP  RH WIND       PRES   REMARKS
GOODLAND       PTCLDY    76  64  66 E10       30.00R
HAYS           CLOUDY    82  63  51 E13       29.91R
HILL CITY      CLOUDY    68  64  87 E6        29.94R
RUSSELL        CLOUDY    82  66  58 SE7       29.93R
$$

KSZ061>065-074>080-084>089-050200-
SOUTHWEST KANSAS

CITY           SKY/WX    TMP DP  RH WIND       PRES   REMARKS
DODGE CITY     PTCLDY    84  64  50 SE16      29.92R
ELKHART          N/A     84  66  54 S10         N/A
GARDEN CITY    MOCLDY    85  65  51 NE8       29.93R
GREAT BEND     MOCLDY    81  66  61 SE13      29.91R
LIBERAL        CLEAR     88  64  45 S16       29.89F
PRATT          CLEAR     81  68  65 SE9       29.94R
$$

KSZ066>073-081>083-090>101-050200-
SOUTHEAST KANSAS

CITY           SKY/WX    TMP DP  RH WIND       PRES   REMARKS
CHANUTE        RAIN      76  66  71 NE5       29.97R
COFFEYVILLE    CLOUDY    76  71  85 S5        29.94R
HUTCHINSON     CLEAR     80  68  66 S12       29.92S
MEDICINE LODGE   N/A     82  71  69 E8        29.90R
NEWTON         PTCLDY    77  64  65 SE8       29.96S
PARSONS        CLOUDY    76  72  87 CALM      29.96R
WICHITA INTL   PTCLDY    79  69  71 SE8       29.92S
WICHITA JABRA  PTCLDY    78  69  73 SE9       29.93R
WICHITA MCCONL MOCLDY    79  68  69 SE10      29.93S
$$

KSZ007>012-019>026-033>040-048>060-102>105-050200-
NORTHEAST KANSAS

CITY           SKY/WX    TMP DP  RH WIND       PRES   REMARKS
CONCORDIA      LGT RAIN  68  63  84 W16G28    29.99R
EMPORIA        MOCLDY    77  66  68 SE10      29.95S
LAWRENCE       CLOUDY    71  69  93 E7        29.97F
MANHATTAN      CLOUDY    76  72  87 E5        29.92F
MARYSVILLE     CLOUDY    73  70  88 S7        29.94S
OLATHE IND     LGT RAIN  72  71  97 NE7       30.00F FOG
OLATHE EXE     LGT RAIN  70  70 100 NE6       29.99F FOG
SALINA         MOCLDY    81  70  69 SE12      29.92R
TOPEKA BILLARD LGT RAIN  73  71  93 E10       29.95F
TOPEKA FORBES  CLOUDY    74  70  87 SE8       29.95F
$$



USA.gov is the U.S. government's official web portal to all federal, state and local government web resources and services.